TimeCST,TemperatureF,Dew PointF,Humidity,Sea Level PressureIn,VisibilityMPH,Wind Direction,Wind SpeedMPH,Gust SpeedMPH,PrecipitationIn,Events,Conditions,WindDirDegrees,DateUTC
12:00 AM,70,70,98,30.07,6,Calm,Calm,,,,Partly Cloudy,,2012-11-17 06:00:00
12:00 AM,69.8,69.8,100,30.06,6.2,Calm,Calm,-,N/A,,Mostly Cloudy,0,2012-11-17 06:00:00
1:00 AM,69.8,69.8,100,30.06,6.2,Calm,Calm,-,N/A,,Scattered Clouds,0,2012-11-17 07:00:00
3:00 AM,70,70,98,30.05,6,Calm,Calm,,,,Partly Cloudy,,2012-11-17 09:00:00
3:00 AM,73.4,69.8,88,30.04,6.2,Calm,Calm,-,N/A,,Mostly Cloudy,0,2012-11-17 09:00:00
4:00 AM,69.8,69.8,100,30.06,2.5,WSW,3.5,-,N/A,Rain,Light Rain,250,2012-11-17 10:00:00
5:00 AM,69.8,69.8,100,30.06,3.7,Calm,Calm,-,N/A,,Scattered Clouds,0,2012-11-17 11:00:00
6:00 AM,70,70,98,30.07,7,SSW,3.5,,,,Partly Cloudy,210,2012-11-17 12:00:00
6:00 AM,69.8,69.8,100,30.06,6.2,SSW,3.5,-,N/A,,Mostly Cloudy,210,2012-11-17 12:00:00
7:00 AM,-9999,-9999,N/A,30.09,6.2,Calm,Calm,-,N/A,,Mostly Cloudy,0,2012-11-17 13:00:00
8:00 AM,71.6,71.6,100,30.09,6.2,SSW,3.5,-,N/A,,Scattered Clouds,210,2012-11-17 14:00:00
9:00 AM,75,74,95,30.12,6,Calm,Calm,,,,Haze,,2012-11-17 15:00:00
9:00 AM,75.2,73.4,94,30.12,6.2,Calm,Calm,-,N/A,,Scattered Clouds,0,2012-11-17 15:00:00
10:00 AM,80.6,73.4,79,30.12,6.2,SSE,3.5,-,N/A,,Scattered Clouds,150,2012-11-17 16:00:00
11:00 AM,82.4,73.4,74,30.09,6.2,East,3.5,-,N/A,,Scattered Clouds,80,2012-11-17 17:00:00
12:00 PM,83,74,69,30.07,7,NE,4.6,,,,Mostly Cloudy,40,2012-11-17 18:00:00
12:00 PM,84.2,75.2,74,30.06,6.2,NE,4.6,-,N/A,,Mostly Cloudy,40,2012-11-17 18:00:00
1:00 PM,82.4,75.2,79,30.04,6.2,ENE,11.5,-,N/A,,Scattered Clouds,70,2012-11-17 19:00:00
2:00 PM,84.2,73.4,70,30.01,6.2,NNE,9.2,-,N/A,,Scattered Clouds,30,2012-11-17 20:00:00
3:00 PM,85,67,45,30.01,7,NNE,13.8,,,,Haze,20,2012-11-17 21:00:00
3:00 PM,84.2,66.2,55,30.01,6.2,NNE,13.8,-,N/A,,Scattered Clouds,20,2012-11-17 21:00:00
4:00 PM,82.4,71.6,70,30.01,6.2,NE,11.5,-,N/A,,Scattered Clouds,40,2012-11-17 22:00:00
5:00 PM,78.8,75.2,89,30.01,6.2,NE,8.1,-,N/A,,Scattered Clouds,50,2012-11-17 23:00:00
6:00 PM,75,74,95,30.04,6,NE,5.8,,,,Haze,50,2012-11-18 00:00:00
6:00 PM,75.2,73.4,94,30.04,6.2,NE,5.8,-,N/A,,Partly Cloudy,50,2012-11-18 00:00:00
7:00 PM,73.4,71.6,94,30.06,6.2,NW,4.6,-,N/A,,Partly Cloudy,320,2012-11-18 01:00:00
8:00 PM,71.6,71.6,100,30.09,6.2,NNW,3.5,-,N/A,,Scattered Clouds,330,2012-11-18 02:00:00
9:00 PM,72,72,100,30.11,6,Calm,Calm,,,,Haze,,2012-11-18 03:00:00
9:00 PM,71.6,71.6,100,30.09,6.2,Calm,Calm,-,N/A,,Scattered Clouds,0,2012-11-18 03:00:00
10:00 PM,69.8,69.8,100,30.09,6.2,West,12.7,-,N/A,,Partly Cloudy,260,2012-11-18 04:00:00
11:00 PM,69.8,69.8,100,30.09,6.2,SSE,1.2,-,N/A,,Partly Cloudy,150,2012-11-18 05:00:00